Showing default

OPS 7218 (TRANSIT 16), 2807

Orbit data source: Space-Track

OPS 7218 (TRANSIT 16), 2807 is a payload satellite owned by USN NAVAIR (US) in LEO that was launched on Thu, 18 May 1967 UTC via an SCOUT A launch vehicle from the Air Force Western Test Range (AFWTR). Payload-class satellites include a variety of spacecraft equipped with specific instruments for various scientific and technological missions. These include communications satellites like Starlink; space stations such as the ISS; scientific satellites like the Hubble; Earth observation satellites from companies like Planet Labs, Umbra, and HawkEye 360; GPS; miniature CubeSats for education and research; and military/defense satellites.

Loading next visibility...
Identifier
2807, 1967-048A
Orbit
LEO
Country
Flag of USUS
Related business
Manufacturer
APL
Mission
Spacecraft
Bus & Motor
TRANSIT 5, Unknown motor
Mass
~50 kg wet, ~50 kg dry
Launch date (UTC)
1967-05-18 (59 years ago)
Launch vehicle
SCOUT A
Launch site
Air Force Western Test Range (AFWTR)
Object type
Payload
Rocket body
Debris
Shape & HBR
Unknown
Radar Cross Section
Large (>1 m²)

Expand to show TLE details & history
Last TLE update: 14 hours ago

TLE from 14 hours ago
0 OPS 7218 (TRANSIT 16)
1 02807U 67048A   26126.56564735  .00000114  00000-0  16097-3 0  9992
2 02807  89.6746 349.2826 0022009  59.7416 328.4101 13.50757952902316
Epoch: 2026-05-06T13:34Z
TLE epoch observation values (Epoch: 2026-05-06T13:34:31.931Z)
Latitude
28.05845°
Longitude
-78.6022°
Altitude
1,059.024 km
Speed
7.332 km/s
True Right ascension
23h 17m 49s
True Declination
27° 55' 18"
Sunlit
Object was in daylight at epoch
Visualization orbit readout
Latitude
Unknown
Longitude
Unknown
Altitude
Unknown
Speed
Unknown
Apparent Right ascension
Unknown
Apparent Declination
Unknown
Sunlit
N/A
Visualization observer readout
Local Sidereal Time
11:40:01
Azimuth
Unknown
Elevation
Unknown
Doppler factor
Unknown
Orbital elements
Apogee altitude
1,082.905 km
Perigee altitude
1,050.135 km
Semi-major axis
7,444.657 km
Eccentricity
0.0022
Inclination
89.6746°
RAAN
349.2826°
Arg. of periapsis
59.7416°
True anomaly
328.27768°
Mean anomaly
328.4101°
Eccentric anomaly
328.34392°
Mean motion
3.37891 °/min
Orbital period
106.54 mins
BSTAR
0.00016097
Loading maneuver chart data...
Computing Atmospheric mass density...
Loading historical data...
Loading historical data...
Loading historical data...
Loading historical data...
Loading historical data...
Loading historical data...
Loading historical data...

Documentation

Showing up to 5 results
|